Probability
0 0 0 0 0 0 0 0 0 0 0 0 0 0 0 0 0 0 0 0 0 0 0 0 1 1 0 0 1 0 0 0 0 0 0 0 0 0 0 0 0 0 0
0 0 0 0 0 0 0 0 0 0 0 0 0 0 0 0 0 0 0 0 0 0 0 1 2 2 1 1 1 1 1 1 1 0 0 0 0 0 0 0 0 0 0
0 0 0 0 0 0 0 0 0 0 0 0 0 0 0 0 0 0 0 0 0 0 0 1 2 3 2 2 2 3 3 3 3 1 1 1 0 0 0 0 0 0 0
0 0 0 0 0 0 0 0 0 0 0 0 0 0 0 0 0 0 0 0 0 0 0 0 2 3 3 3 2 3 4 5 5 4 3 2 1 0 0 0 0 0 0
0 0 0 0 0 0 0 0 0 0 0 0 0 0 0 0 0 0 0 0 0 0 0 0 1 2 2 2 2 1 3 5 6 6 5 4 3 1 1 1 0 0 0
0 0 0 0 0 0 0 0 0 0 0 0 0 0 0 0 0 0 0 0 0 0 0 0 1 1 1 1 2 1 2 3 5 7 7 6 6 4 3 3 2 0 0
0 0 0 0 0 0 0 0 0 0 0 0 0 0 0 0 0 0 0 0 0 0 0 0 0 0 0 1 2 2 2 2 5 7 8 8 8 7 6 5 4 2 1
0 0 0 0 0 0 0 1 1 0 1 1 1 0 0 0 0 0 0 0 0 0 0 0 0 0 0 1 1 1 1 2 3 6 7 7 7 6 6 5 4 4 4
0 0 0 0 0 1 1 2 2 2 2 2 2 1 1 1 1 0 0 0 0 0 0 0 0 0 0 1 1 1 1 1 2 4 4 3 3 3 4 5 6 5 5
0 1 1 0 1 2 2 3 3 3 3 3 3 3 2 2 1 0 0 0 0 0 0 0 0 0 0 1 1 0 0 0 1 1 1 1 1 1 2 5 7 6 5
1 2 2 1 1 3 3 3 3 3 3 3 3 3 3 2 1 0 0 0 0 0 0 0 0 0 0 0 0 0 0 0 0 0 0 0 0 0 1 4 6 6 5
1 2 2 2 2 4 5 4 4 4 3 3 3 4 4 3 2 1 1 0 0 0 0 0 0 0 0 0 0 0 0 0 0 0 0 0 0 0 1 3 4 4 5
3 4 4 4 4 6 6 5 5 5 4 3 4 5 5 5 5 4 3 1 0 0 0 0 0 0 0 0 0 0 0 0 0 0 0 0 0 0 1 2 2 3 5
5 5 6 7 7 6 5 5 6 5 4 3 3 4 5 5 5 5 4 2 0 0 0 0 0 0 1 0 0 0 0 0 0 0 0 0 0 0 0 1 1 2 3
6 6 6 7 8 7 6 7 7 6 5 4 3 3 4 3 2 2 1 1 0 0 0 0 0 1 1 0 0 0 0 0 0 0 0 0 0 0 0 0 0 1 1
6 6 6 7 8 9 9 9 9 8 7 6 4 3 3 3 1 0 0 0 0 0 0 0 0 1 0 0 0 0 0 0 0 0 0 0 0 0 0 0 0 0 0
5 6 7 9 9 9 9 9 9 10 10 8 6 4 4 4 3 2 2 2 1 1 1 1 0 0 0 0 0 0 0 0 0 0 0 0 0 0 0 0 0 0 0
7 8 9 10 10 10 9 8 9 12 13 12 8 6 6 5 5 5 5 5 5 3 3 3 1 1 0 0 0 0 0 0 0 0 0 0 0 0 0 0 0 0 0
12 12 11 11 12 11 10 10 11 13 15 14 10 7 7 7 7 7 8 8 7 6 5 4 3 2 1 0 0 0 0 0 0 0 1 1 1 0 0 0 0 0 0
16 16 15 14 14 13 13 12 12 13 14 12 9 8 9 9 9 9 9 9 8 7 6 4 3 3 2 1 0 0 0 0 0 1 2 2 2 1 0 0 0 0 0
16 17 17 16 16 15 14 12 12 12 11 10 9 10 11 12 11 10 10 9 8 8 6 5 4 4 4 3 2 2 1 1 0 1 2 3 3 2 1 1 0 0 0
17 17 17 17 17 16 13 10 9 11 11 11 10 11 12 13 12 11 9 8 7 7 7 7 6 6 6 5 4 3 3 2 1 1 2 3 3 3 3 2 1 0 0
19 20 19 19 18 16 12 6 6 9 12 11 11 11 12 12 12 11 9 7 5 4 5 6 6 6 6 6 6 4 3 2 2 1 1 1 3 3 3 2 1 0 0
21 22 22 21 20 16 10 4 4 9 11 10 9 10 10 10 9 9 7 5 3 2 2 3 4 5 5 5 4 3 2 1 1 1 0 1 2 3 3 2 1 0 0
20 20 21 23 22 17 10 4 4 9 10 9 7 7 7 6 5 4 4 3 2 1 1 1 1 2 2 2 1 1 1 0 0 0 0 0 1 1 2 2 1 0 0
18 17 19 23 22 17 11 4 4 9 10 8 6 4 4 4 2 2 2 1 1 2 2 1 0 0 0 0 0 0 0 0 0 0 0 0 0 0 1 2 1 0 0
Wind_Speed
2 1 1 1 1 1 1 1 1 1 1 1 2 2 3 3 4 4 3 8 9 10 11 11 12 13 13 13 13 12 12 12 11 11 11 10 10 10 9 9 9 9 9
2 2 1 1 1 1 1 1 2 2 2 2 2 3 3 3 4 4 4 5 9 10 10 11 12 13 13 13 13 13 13 12 12 11 12 11 11 11 11 10 10 10 9
3 2 2 2 2 1 1 1 1 1 2 2 2 3 3 4 4 4 5 4 5 8 11 11 12 12 13 14 14 13 13 13 13 13 12 12 12 12 11 11 11 11 10
4 3 2 2 2 1 1 1 1 1 1 1 2 2 2 3 4 4 4 4 4 5 7 11 12 13 14 14 14 14 14 14 14 13 13 13 13 13 12 12 12 11 11
4 3 3 2 2 1 1 2 1 1 2 2 2 2 2 3 4 4 5 5 5 5 5 7 11 12 14 15 15 15 15 14 14 14 15 15 14 14 13 13 13 12 12
4 4 3 3 2 2 2 1 1 1 1 1 2 2 2 3 3 3 4 4 4 6 6 6 6 7 12 13 13 14 15 15 15 15 16 16 16 15 14 14 14 14 13
4 4 3 3 3 3 3 3 1 1 1 1 0 2 2 2 2 2 2 3 4 4 5 5 5 4 4 8 10 11 13 15 15 15 16 16 16 16 15 15 15 15 15
5 5 4 3 3 3 3 3 2 1 1 1 1 0 2 3 2 1 1 2 3 2 3 4 4 5 4 3 5 9 11 12 13 13 13 14 15 15 16 16 17 16 16
4 4 5 4 4 4 3 4 4 4 2 1 2 2 1 2 3 2 2 1 1 1 2 2 3 4 4 3 4 6 8 9 10 10 10 11 12 13 14 15 15 15 16
4 4 4 4 4 4 4 4 4 3 3 2 2 2 2 2 1 2 2 2 2 2 2 2 2 2 2 3 3 5 6 6 6 8 9 9 9 10 11 12 12 12 13
3 4 4 4 4 4 4 4 3 4 3 3 3 2 2 1 2 2 3 3 2 2 1 1 1 1 1 1 2 2 3 3 4 5 6 7 7 8 8 9 10 10 11
2 3 3 4 4 3 4 4 4 4 4 4 3 3 3 2 3 3 3 3 2 2 1 1 1 1 1 1 1 1 1 1 3 3 4 4 4 5 5 5 6 6 6
2 3 3 3 3 4 4 4 4 4 4 4 4 3 3 3 2 3 2 2 2 1 2 1 1 1 1 0 1 1 2 2 2 2 2 2 2 2 2 3 3 4 4
4 3 3 3 4 4 4 4 3 4 3 4 5 4 3 3 3 3 3 2 2 1 1 2 1 1 1 1 1 1 1 2 2 2 3 2 2 2 2 1 1 2 2
3 3 4 4 3 3 4 4 3 4 3 4 4 4 3 2 2 3 2 2 2 2 2 1 1 1 0 0 1 1 1 2 3 3 3 3 3 2 2 2 1 1 1
3 3 4 4 4 4 4 4 4 4 4 4 3 3 3 2 2 2 2 2 3 3 2 1 1 1 1 1 1 1 1 2 3 3 3 3 3 3 3 3 2 2 2
4 4 4 4 4 4 4 4 4 4 4 4 3 4 4 3 3 2 2 2 2 3 3 2 1 1 0 0 1 1 1 1 1 3 3 3 4 4 3 3 3 3 3
4 5 4 4 5 4 4 5 5 5 5 5 5 5 5 3 3 2 2 2 3 3 3 3 1 1 1 1 0 0 0 0 0 2 2 3 3 3 3 4 4 4 4
5 5 4 4 4 4 4 4 5 5 5 5 5 5 5 4 4 3 3 3 2 2 2 2 2 1 1 1 0 0 0 0 0 1 1 2 2 3 3 3 3 3 3
5 4 4 4 4 4 4 4 4 4 5 4 4 5 5 5 5 4 4 4 3 3 2 2 2 1 1 1 1 1 0 0 1 1 1 1 1 2 2 2 2 2 2
4 4 4 4 4 4 4 4 4 5 5 4 4 4 5 6 6 5 4 4 4 3 3 3 2 1 1 1 2 1 1 0 1 0 0 1 1 1 1 1 1 2 2
4 4 4 4 4 4 5 7 6 5 5 5 5 4 4 5 6 6 7 6 6 5 5 4 3 3 3 2 2 1 1 1 1 0 0 0 0 0 0 0 0 1 1
4 4 4 4 5 6 7 8 8 6 5 5 5 4 4 4 5 4 5 5 5 6 7 5 5 5 4 4 3 3 2 2 2 1 1 1 0 1 0 0 1 1 1
3 3 4 5 5 5 7 8 8 6 5 6 6 6 5 5 5 5 5 4 3 3 5 4 4 4 4 4 4 4 3 2 0 0 1 1 1 1 0 0 1 2 1
3 3 3 4 5 5 7 8 7 5 4 5 5 5 6 6 6 7 5 5 3 2 2 3 3 3 3 4 4 3 3 2 1 1 1 1 1 1 0 1 0 1 1
3 3 4 4 5 5 6 7 7 4 4 4 4 4 6 6 7 8 6 5 5 4 3 2 2 1 2 3 5 4 4 3 2 2 2 2 1 1 1 0 1 1 1
Wind_Direction
199 200 205 209 203 180 179 179 180 221 247 266 258 237 235 227 225 225 231 233 229 227 227 222 219 217 215 215 216 216 216 216 214 213 215 218 221 220 219 218 217 215 214
194 195 209 208 212 199 191 189 197 214 237 247 260 251 245 240 232 230 229 237 238 231 230 229 224 221 221 222 222 220 220 220 219 218 218 220 223 224 223 222 222 220 219
193 193 204 215 215 195 183 183 207 212 230 238 251 252 246 244 242 236 232 231 238 237 234 231 228 226 226 226 226 225 224 224 223 223 222 221 222 224 226 226 226 224 223
192 192 205 223 210 172 168 181 195 210 235 236 249 258 248 247 247 241 235 231 229 234 235 232 231 231 231 232 231 230 228 226 226 226 225 224 224 225 227 229 229 228 227
197 192 206 217 196 181 192 209 189 194 230 247 252 253 253 249 250 249 241 235 230 231 234 239 239 236 235 237 236 234 232 229 228 228 228 229 229 228 228 230 231 230 229
200 192 205 209 188 187 210 212 210 210 230 250 274 280 274 265 254 247 247 241 235 235 235 239 241 243 241 240 238 237 236 234 230 228 230 231 231 230 227 228 229 230 231
201 196 209 203 193 201 212 204 194 210 237 196 331 320 312 291 271 255 247 242 244 245 240 236 234 236 246 245 242 241 242 242 238 232 231 232 232 231 228 227 228 229 230
204 206 205 205 200 201 210 202 184 178 228 162 156 21 334 334 326 309 262 240 249 247 244 238 231 231 237 239 240 245 248 251 252 245 238 234 234 233 230 229 228 229 231
209 210 206 202 201 198 214 216 194 190 207 208 184 167 173 260 308 321 319 294 281 266 258 247 237 236 235 234 245 257 258 257 259 259 256 245 240 238 234 232 230 230 232
213 209 205 201 203 199 212 224 208 196 189 210 208 211 201 186 221 317 322 323 319 301 288 272 265 250 239 239 245 253 263 266 265 264 263 258 248 243 236 231 229 231 231
218 213 201 198 204 205 210 215 206 201 196 200 197 192 198 194 198 216 284 311 324 312 295 278 272 267 262 249 250 253 267 281 283 275 268 264 261 252 246 238 236 235 233
222 218 202 200 206 208 212 212 209 208 208 205 202 196 186 185 195 199 236 268 289 299 313 314 295 281 267 252 256 301 321 326 312 301 288 282 282 278 260 250 247 245 241
219 220 210 204 207 210 210 203 202 210 207 205 208 212 210 214 190 182 205 242 263 286 311 325 318 307 307 304 290 11 15 11 355 335 331 331 323 311 293 274 269 262 257
218 211 205 209 213 211 212 200 203 213 208 212 216 208 210 218 204 197 196 198 243 271 282 283 326 328 336 333 354 25 46 48 42 34 33 28 18 8 355 335 304 293 280
212 204 205 212 216 212 208 199 210 214 206 211 216 209 210 214 207 212 207 199 204 241 264 255 271 328 317 346 357 7 39 58 58 48 46 46 46 40 30 23 16 4 343
211 202 209 211 213 214 207 202 212 216 208 211 204 200 206 209 203 205 204 199 202 208 240 244 239 286 322 355 28 13 34 49 51 47 49 54 54 52 53 56 49 38 30
208 210 209 210 214 217 210 205 215 211 213 214 202 199 210 200 197 201 192 188 192 192 222 249 238 262 219 195 2 357 48 49 39 48 54 57 55 55 57 59 55 48 44
212 212 210 214 222 221 210 207 214 211 211 214 209 199 207 197 201 203 195 196 199 195 200 229 238 250 233 223 247 242 45 56 26 44 60 66 66 67 64 63 61 56 50
212 209 206 216 225 221 214 215 214 211 212 213 207 204 206 195 204 204 203 205 205 197 194 204 215 218 223 185 168 265 120 5 4 50 86 85 91 86 75 70 70 65 54
209 208 206 214 216 214 215 219 214 214 216 214 209 206 204 202 207 208 207 206 195 187 186 196 212 213 213 185 170 207 244 8 341 5 30 76 89 98 81 71 74 73 65
214 209 204 209 212 212 217 215 213 212 209 211 214 214 211 205 205 202 200 199 192 189 181 192 204 204 207 196 206 200 217 319 313 320 344 43 67 54 50 44 62 68 70
209 204 207 209 213 222 225 215 209 210 206 205 212 216 214 209 206 203 203 197 192 192 193 193 202 211 218 217 203 192 181 185 240 216 211 304 102 254 335 99 108 112 88
210 211 215 214 221 225 217 214 210 204 203 207 208 205 212 212 200 202 199 198 206 209 198 190 196 209 207 204 190 191 199 204 220 205 185 232 246 254 256 197 198 159 121
218 217 221 224 230 233 214 209 205 205 207 210 208 204 204 207 205 195 184 185 203 218 214 209 209 212 207 194 193 197 196 186 168 146 183 207 228 246 278 234 199 172 158
221 219 227 225 227 238 221 209 198 204 212 217 213 207 204 207 203 184 176 182 191 212 194 182 195 204 181 165 162 148 151 163 199 203 189 198 197 227 250 261 214 183 182
224 225 233 232 231 238 226 215 201 204 211 219 220 215 207 203 189 179 182 186 195 203 177 158 159 189 184 167 166 176 178 179 181 201 186 185 168 164 217 221 237 225 218